Time,TemperatureF,DewpointF,PressureIn,WindDirection,WindDirectionDegrees,WindSpeedMPH,WindSpeedGustMPH,Humidity,HourlyPrecipIn,Conditions,Clouds,dailyrainin,SoftwareType,DateUTC
2013-07-04 00:00:00,71.2,64.7,30.12,SSW,197,3.5,3.5,80,0.00,CLR,,0.00,WeatherDisplay:10.37,2013-07-04 04:00:00,
2013-07-04 00:01:00,71.2,64.7,30.12,SSW,197,3.5,3.5,80,0.00,CLR,,0.00,WeatherDisplay:10.37,2013-07-04 04:01:00,
2013-07-04 00:02:00,71.2,64.7,30.12,SSW,197,3.5,3.5,80,0.00,FEW,,0.00,WeatherDisplay:10.37,2013-07-04 04:02:00,
2013-07-04 00:03:00,71.2,64.7,30.12,SSW,197,3.5,3.5,80,0.00,FEW,,0.00,WeatherDisplay:10.37,2013-07-04 04:03:00,
2013-07-04 00:04:00,71.1,64.6,30.12,SSW,206,7.0,7.0,80,0.00,FEW,,0.00,WeatherDisplay:10.37,2013-07-04 04:04:00,
2013-07-04 00:05:00,71.1,64.6,30.12,SSW,206,7.0,7.0,80,0.00,FEW,,0.00,WeatherDisplay:10.37,2013-07-04 04:05:00,
2013-07-04 00:10:00,71.1,64.6,30.12,SSW,198,4.0,4.0,80,0.00,FEW,,0.00,WeatherDisplay:10.37,2013-07-04 04:10:00,
2013-07-04 00:15:00,71.0,64.5,30.12,SSW,198,5.8,5.8,80,0.00,FEW,,0.00,WeatherDisplay:10.37,2013-07-04 04:15:00,
2013-07-04 00:20:00,70.9,64.4,30.12,SSW,198,4.6,4.6,80,0.00,FEW,,0.00,WeatherDisplay:10.37,2013-07-04 04:20:00,
2013-07-04 00:25:00,70.9,64.4,30.12,SSW,202,8.1,8.1,80,0.00,FEW,,0.00,WeatherDisplay:10.37,2013-07-04 04:25:00,
2013-07-04 00:30:00,70.9,64.1,30.12,SSW,202,4.0,4.0,79,0.00,FEW,,0.00,WeatherDisplay:10.37,2013-07-04 04:30:00,
2013-07-04 00:35:00,70.8,64.0,30.12,SSW,201,4.0,4.0,79,0.00,FEW,,0.00,WeatherDisplay:10.37,2013-07-04 04:35:00,
2013-07-04 00:40:00,70.7,63.9,30.12,SSW,202,3.5,3.5,79,0.00,FEW,,0.00,WeatherDisplay:10.37,2013-07-04 04:40:00,
2013-07-04 00:45:00,70.6,63.8,30.12,South,190,11.5,11.5,79,0.00,FEW,,0.00,WeatherDisplay:10.37,2013-07-04 04:45:00,
2013-07-04 00:50:00,70.6,63.8,30.12,SSW,202,4.0,4.0,79,0.00,FEW,,0.00,WeatherDisplay:10.37,2013-07-04 04:50:00,
2013-07-04 00:55:00,70.5,64.0,30.12,SSW,202,5.0,5.0,80,0.00,FEW,,0.00,WeatherDisplay:10.37,2013-07-04 04:55:00,
2013-07-04 01:00:00,70.5,64.0,30.12,SSW,204,5.0,5.0,80,0.00,FEW,,0.00,WeatherDisplay:10.37,2013-07-04 05:00:00,
2013-07-04 01:05:00,70.3,63.8,30.12,SSW,193,8.1,8.1,80,0.00,FEW,,0.00,WeatherDisplay:10.37,2013-07-04 05:05:00,
2013-07-04 01:10:00,70.3,63.8,30.12,SSW,192,2.3,2.3,80,0.00,FEW,,0.00,WeatherDisplay:10.37,2013-07-04 05:10:00,
2013-07-04 01:15:00,70.2,63.7,30.12,SSW,192,4.0,4.0,80,0.00,FEW,,0.00,WeatherDisplay:10.37,2013-07-04 05:15:00,
2013-07-04 01:20:00,70.1,63.6,30.12,SSW,192,4.6,4.6,80,0.00,FEW,,0.00,WeatherDisplay:10.37,2013-07-04 05:20:00,
2013-07-04 01:25:00,70.0,63.5,30.12,South,191,1.0,1.0,80,0.00,FEW,,0.00,WeatherDisplay:10.37,2013-07-04 05:25:00,
2013-07-04 01:30:00,69.9,63.8,30.12,SSW,192,4.0,4.0,81,0.00,FEW,,0.00,WeatherDisplay:10.37,2013-07-04 05:30:00,
2013-07-04 01:35:00,69.9,63.8,30.12,SSW,192,1.1,1.1,81,0.00,FEW,,0.00,WeatherDisplay:10.37,2013-07-04 05:35:00,
2013-07-04 01:40:00,69.9,63.8,30.12,South,191,0.0,0.0,81,0.00,FEW,,0.00,WeatherDisplay:10.37,2013-07-04 05:40:00,
2013-07-04 01:45:00,69.7,63.6,30.12,SSW,192,4.0,4.0,81,0.00,FEW,,0.00,WeatherDisplay:10.37,2013-07-04 05:45:00,
2013-07-04 01:50:00,69.7,63.6,30.12,SSW,193,4.0,4.0,81,0.00,FEW,,0.00,WeatherDisplay:10.37,2013-07-04 05:50:00,
2013-07-04 01:55:00,69.6,63.5,30.12,SSW,193,0.0,0.0,81,0.00,FEW,,0.00,WeatherDisplay:10.37,2013-07-04 05:55:00,
2013-07-04 02:00:00,69.5,63.8,30.12,SSW,193,3.0,3.0,82,0.00,FEW,,0.00,WeatherDisplay:10.37,2013-07-04 06:00:00,
2013-07-04 02:05:00,69.4,63.7,30.12,SSW,193,2.3,2.3,82,0.00,CLR,,0.00,WeatherDisplay:10.37,2013-07-04 06:05:00,
2013-07-04 02:10:00,69.4,63.7,30.12,SSW,193,2.3,2.3,82,0.00,CLR,,0.00,WeatherDisplay:10.37,2013-07-04 06:10:00,
2013-07-04 02:15:00,69.4,63.7,30.12,SSW,192,3.5,3.5,82,0.00,CLR,,0.00,WeatherDisplay:10.37,2013-07-04 06:15:00,
2013-07-04 02:20:00,69.3,63.6,30.12,South,191,1.1,1.1,82,0.00,CLR,,0.00,WeatherDisplay:10.37,2013-07-04 06:20:00,
2013-07-04 02:25:00,69.2,63.5,30.12,SSW,192,3.5,3.5,82,0.00,CLR,,0.00,WeatherDisplay:10.37,2013-07-04 06:25:00,
2013-07-04 02:30:00,69.1,63.7,30.12,South,191,3.5,3.5,83,0.00,CLR,,0.00,WeatherDisplay:10.37,2013-07-04 06:30:00,
2013-07-04 02:35:00,69.0,63.6,30.12,SSW,192,1.1,0.0,83,0.00,CLR,,0.00,WeatherDisplay:10.37,2013-07-04 06:35:00,
2013-07-04 02:40:00,68.9,63.5,30.12,SSW,192,3.0,3.0,83,0.00,CLR,,0.00,WeatherDisplay:10.37,2013-07-04 06:40:00,
2013-07-04 02:45:00,68.8,63.4,30.12,SSW,192,5.0,5.0,83,0.00,CLR,,0.00,WeatherDisplay:10.37,2013-07-04 06:45:00,
2013-07-04 02:50:00,68.8,63.4,30.12,South,191,2.3,2.3,83,0.00,CLR,,0.00,WeatherDisplay:10.37,2013-07-04 06:50:00,
2013-07-04 02:55:00,68.7,63.3,30.12,SSW,192,3.5,3.5,83,0.00,CLR,,0.00,WeatherDisplay:10.37,2013-07-04 06:55:00,
2013-07-04 03:00:00,68.6,63.2,30.12,South,191,3.0,3.0,83,0.00,CLR,,0.00,WeatherDisplay:10.37,2013-07-04 07:00:00,
2013-07-04 03:05:00,68.5,63.1,30.12,SSW,192,1.0,0.0,83,0.00,FEW,,0.00,WeatherDisplay:10.37,2013-07-04 07:05:00,
2013-07-04 03:10:00,68.5,63.1,30.12,South,191,0.0,0.0,83,0.00,FEW,,0.00,WeatherDisplay:10.37,2013-07-04 07:10:00,
2013-07-04 03:15:00,68.4,63.0,30.12,South,191,1.1,1.1,83,0.00,FEW,,0.00,WeatherDisplay:10.37,2013-07-04 07:15:00,
2013-07-04 03:20:00,68.4,63.4,30.12,South,191,0.0,0.0,84,0.00,FEW,,0.00,WeatherDisplay:10.37,2013-07-04 07:20:00,
2013-07-04 03:25:00,68.3,63.3,30.12,South,191,0.0,0.0,84,0.00,FEW,,0.00,WeatherDisplay:10.37,2013-07-04 07:25:00,
2013-07-04 03:30:00,68.2,63.2,30.12,SSW,193,0.0,0.0,84,0.00,FEW,,0.00,WeatherDisplay:10.37,2013-07-04 07:30:00,
2013-07-04 03:35:00,68.1,63.1,30.12,SSW,192,0.0,0.0,84,0.00,FEW,,0.00,WeatherDisplay:10.37,2013-07-04 07:35:00,
2013-07-04 03:40:00,68.1,63.1,30.12,SSW,192,0.0,0.0,84,0.00,FEW,,0.00,WeatherDisplay:10.37,2013-07-04 07:40:00,
2013-07-04 03:45:00,68.1,63.1,30.12,SSW,192,0.0,0.0,84,0.00,FEW,,0.00,WeatherDisplay:10.37,2013-07-04 07:45:00,
2013-07-04 03:50:00,68.0,63.0,30.12,South,191,0.0,0.0,84,0.00,FEW,,0.00,WeatherDisplay:10.37,2013-07-04 07:50:00,
2013-07-04 03:55:00,68.0,63.3,30.12,South,191,1.1,0.0,85,0.00,FEW,,0.00,WeatherDisplay:10.37,2013-07-04 07:55:00,
2013-07-04 04:00:00,68.0,63.3,30.12,SSW,192,3.5,3.5,85,0.00,FEW,,0.00,WeatherDisplay:10.37,2013-07-04 08:00:00,
2013-07-04 04:05:00,68.0,63.3,30.12,SSW,192,4.0,4.0,85,0.00,CLR,,0.00,WeatherDisplay:10.37,2013-07-04 08:05:00,
2013-07-04 04:10:00,68.0,63.3,30.12,SSW,192,2.3,0.0,85,0.00,CLR,,0.00,WeatherDisplay:10.37,2013-07-04 08:10:00,
2013-07-04 04:15:00,68.0,63.3,30.12,SSW,192,2.3,0.0,85,0.00,CLR,,0.00,WeatherDisplay:10.37,2013-07-04 08:15:00,
2013-07-04 04:20:00,68.0,63.3,30.12,South,191,0.0,0.0,85,0.00,CLR,,0.00,WeatherDisplay:10.37,2013-07-04 08:20:00,
2013-07-04 04:25:00,68.0,63.3,30.12,South,191,2.3,0.0,85,0.00,CLR,,0.00,WeatherDisplay:10.37,2013-07-04 08:25:00,
2013-07-04 04:30:00,68.0,63.3,30.12,SSW,192,1.1,0.0,85,0.00,CLR,,0.00,WeatherDisplay:10.37,2013-07-04 08:30:00,
2013-07-04 04:35:00,68.0,63.0,30.12,SSW,192,3.5,3.5,84,0.00,CLR,,0.00,WeatherDisplay:10.37,2013-07-04 08:35:00,
2013-07-04 04:40:00,68.0,63.0,30.13,SSW,192,3.5,3.5,84,0.00,CLR,,0.00,WeatherDisplay:10.37,2013-07-04 08:40:00,
2013-07-04 04:45:00,68.0,63.0,30.12,SSW,192,2.0,0.0,84,0.00,CLR,,0.00,WeatherDisplay:10.37,2013-07-04 08:45:00,
2013-07-04 04:50:00,68.0,63.0,30.12,SSW,192,3.5,0.0,84,0.00,CLR,,0.00,WeatherDisplay:10.37,2013-07-04 08:50:00,
2013-07-04 04:55:00,68.0,63.0,30.12,SSW,192,0.0,0.0,84,0.00,CLR,,0.00,WeatherDisplay:10.37,2013-07-04 08:55:00,
2013-07-04 05:00:00,68.0,63.0,30.12,SSW,192,1.1,1.1,84,0.00,CLR,,0.00,WeatherDisplay:10.37,2013-07-04 09:00:00,
2013-07-04 05:05:00,68.0,63.0,30.12,South,191,3.5,3.5,84,0.00,CLR,,0.00,WeatherDisplay:10.37,2013-07-04 09:05:00,
2013-07-04 05:10:00,67.9,62.9,30.12,South,191,1.0,0.0,84,0.00,CLR,,0.00,WeatherDisplay:10.37,2013-07-04 09:10:00,
2013-07-04 05:15:00,67.9,62.9,30.12,South,191,4.0,4.0,84,0.00,CLR,,0.00,WeatherDisplay:10.37,2013-07-04 09:15:00,
2013-07-04 05:20:00,67.9,62.9,30.12,SSW,192,0.0,0.0,84,0.00,CLR,,0.00,WeatherDisplay:10.37,2013-07-04 09:20:00,
2013-07-04 05:25:00,67.8,62.8,30.12,SSW,192,3.5,3.5,84,0.00,CLR,,0.00,WeatherDisplay:10.37,2013-07-04 09:25:00,
2013-07-04 05:30:00,67.8,62.8,30.12,South,191,0.0,0.0,84,0.00,CLR,,0.00,WeatherDisplay:10.37,2013-07-04 09:30:00,
2013-07-04 05:35:00,67.8,63.1,30.12,SSW,192,3.5,3.5,85,0.00,CLR,,0.00,WeatherDisplay:10.37,2013-07-04 09:35:00,
2013-07-04 05:40:00,67.8,63.1,30.13,South,191,3.5,3.5,85,0.00,CLR,,0.00,WeatherDisplay:10.37,2013-07-04 09:40:00,
2013-07-04 05:45:00,67.8,62.8,30.13,SSW,192,2.3,2.3,84,0.00,CLR,,0.00,WeatherDisplay:10.37,2013-07-04 09:45:00,
2013-07-04 05:50:00,67.9,62.9,30.13,South,191,4.0,4.0,84,0.00,CLR,,0.00,WeatherDisplay:10.37,2013-07-04 09:50:00,
2013-07-04 05:55:00,67.9,62.9,30.13,South,189,3.0,3.0,84,0.00,CLR,,0.00,WeatherDisplay:10.37,2013-07-04 09:55:00,
2013-07-04 06:00:00,67.9,62.9,30.13,South,187,3.5,3.5,84,0.00,CLR,,0.00,WeatherDisplay:10.37,2013-07-04 10:00:00,
2013-07-04 06:05:00,68.0,63.0,30.13,South,187,1.1,0.0,84,0.00,OVC,,0.00,WeatherDisplay:10.37,2013-07-04 10:05:00,
2013-07-04 06:10:00,68.0,63.0,30.13,South,188,3.0,3.0,84,0.00,OVC,,0.00,WeatherDisplay:10.37,2013-07-04 10:10:00,
2013-07-04 06:15:00,68.0,63.0,30.13,South,188,1.1,1.1,84,0.00,OVC,,0.00,WeatherDisplay:10.37,2013-07-04 10:15:00,
2013-07-04 06:20:00,68.0,63.0,30.13,South,188,0.0,0.0,84,0.00,OVC,,0.00,WeatherDisplay:10.37,2013-07-04 10:20:00,
2013-07-04 06:25:00,67.9,63.2,30.13,South,188,0.0,0.0,85,0.00,OVC,,0.00,WeatherDisplay:10.37,2013-07-04 10:25:00,
2013-07-04 06:30:00,67.8,63.1,30.13,South,187,1.1,0.0,85,0.00,OVC,,0.00,WeatherDisplay:10.37,2013-07-04 10:30:00,
2013-07-04 06:35:00,67.8,63.1,30.13,South,188,0.0,0.0,85,0.00,OVC,,0.00,WeatherDisplay:10.37,2013-07-04 10:35:00,
2013-07-04 06:40:00,67.8,63.1,30.13,South,188,0.0,0.0,85,0.00,OVC,,0.00,WeatherDisplay:10.37,2013-07-04 10:40:00,
2013-07-04 06:45:00,67.7,63.0,30.13,South,187,0.0,0.0,85,0.00,OVC,,0.00,WeatherDisplay:10.37,2013-07-04 10:45:00,
2013-07-04 06:50:00,67.7,63.0,30.13,South,188,1.0,1.0,85,0.00,OVC,,0.00,WeatherDisplay:10.37,2013-07-04 10:50:00,
2013-07-04 06:55:00,67.8,63.5,30.13,South,187,0.0,0.0,86,0.00,OVC,,0.00,WeatherDisplay:10.37,2013-07-04 10:55:00,
2013-07-04 07:00:00,67.8,63.5,30.13,South,188,0.0,0.0,86,0.00,OVC,,0.00,WeatherDisplay:10.37,2013-07-04 11:00:00,
2013-07-04 07:05:00,67.9,63.6,30.14,South,187,1.0,0.0,86,0.00,OVC,,0.00,WeatherDisplay:10.37,2013-07-04 11:05:00,
2013-07-04 07:10:00,67.9,63.6,30.14,South,188,1.1,1.1,86,0.00,OVC,,0.00,WeatherDisplay:10.37,2013-07-04 11:10:00,
2013-07-04 07:15:00,68.0,63.7,30.14,South,187,0.0,0.0,86,0.00,OVC,,0.00,WeatherDisplay:10.37,2013-07-04 11:15:00,
2013-07-04 07:20:00,68.0,63.7,30.14,South,188,0.0,0.0,86,0.00,OVC,,0.00,WeatherDisplay:10.37,2013-07-04 11:20:00,
2013-07-04 07:25:00,68.0,63.7,30.14,South,188,0.0,0.0,86,0.00,OVC,,0.00,WeatherDisplay:10.37,2013-07-04 11:25:00,
2013-07-04 07:30:00,68.0,64.0,30.14,South,186,6.0,6.0,87,0.00,OVC,,0.00,WeatherDisplay:10.37,2013-07-04 11:30:00,
2013-07-04 07:35:00,68.0,64.0,30.14,South,186,4.0,4.0,87,0.00,OVC,,0.00,WeatherDisplay:10.37,2013-07-04 11:35:00,
2013-07-04 07:40:00,67.9,63.9,30.14,South,187,1.1,0.0,87,0.01,RA,,0.01,WeatherDisplay:10.37,2013-07-04 11:40:00,
2013-07-04 07:45:00,67.9,63.9,30.14,South,187,4.0,4.0,87,0.01,RA,,0.01,WeatherDisplay:10.37,2013-07-04 11:45:00,
2013-07-04 07:50:00,67.9,64.2,30.14,South,187,2.3,0.0,88,0.01,OVC,,0.01,WeatherDisplay:10.37,2013-07-04 11:50:00,
2013-07-04 07:55:00,67.9,64.2,30.14,South,187,2.3,0.0,88,0.01,OVC,,0.01,WeatherDisplay:10.37,2013-07-04 11:55:00,
2013-07-04 08:00:00,67.9,64.2,30.14,South,187,1.1,0.0,88,0.01,OVC,,0.01,WeatherDisplay:10.37,2013-07-04 12:00:00,
2013-07-04 08:05:00,67.9,64.2,30.14,South,187,1.0,0.0,88,0.01,-RA,,0.01,WeatherDisplay:10.37,2013-07-04 12:05:00,
2013-07-04 08:10:00,67.9,64.2,30.14,South,187,1.1,1.1,88,0.01,-RA,,0.01,WeatherDisplay:10.37,2013-07-04 12:10:00,
2013-07-04 08:15:00,68.0,64.6,30.14,South,187,0.0,0.0,89,0.01,-RA,,0.01,WeatherDisplay:10.37,2013-07-04 12:15:00,
2013-07-04 08:20:00,68.0,64.6,30.14,South,187,2.3,2.3,89,0.01,-RA,,0.01,WeatherDisplay:10.37,2013-07-04 12:20:00,
2013-07-04 08:25:00,68.0,64.6,30.14,South,187,0.0,0.0,89,0.01,-RA,,0.01,WeatherDisplay:10.37,2013-07-04 12:25:00,
2013-07-04 08:30:00,68.0,64.6,30.14,South,187,0.0,0.0,89,0.01,-RA,,0.01,WeatherDisplay:10.37,2013-07-04 12:30:00,
2013-07-04 08:32:00,68.0,64.6,30.14,South,186,2.3,2.3,89,0.01,-RA,,0.01,WeatherDisplay:10.37,2013-07-04 12:32:00,
2013-07-04 08:37:00,68.0,64.6,30.14,South,187,0.0,0.0,89,0.01,-RA,,0.01,WeatherDisplay:10.37,2013-07-04 12:37:00,
2013-07-04 08:42:00,68.1,64.7,30.14,South,187,1.1,0.0,89,0.00,-RA,,0.01,WeatherDisplay:10.37,2013-07-04 12:42:00,
2013-07-04 08:47:00,68.0,64.6,30.14,South,186,2.3,2.3,89,0.00,-RA,,0.01,WeatherDisplay:10.37,2013-07-04 12:47:00,
2013-07-04 08:52:00,68.0,64.6,30.14,South,182,4.0,4.0,89,0.00,-RA,,0.01,WeatherDisplay:10.37,2013-07-04 12:52:00,
2013-07-04 08:57:00,68.1,64.7,30.14,South,182,4.0,4.0,89,0.00,-RA,,0.01,WeatherDisplay:10.37,2013-07-04 12:57:00,
2013-07-04 09:02:00,68.2,64.8,30.14,South,182,4.6,4.6,89,0.00,-RA,,0.01,WeatherDisplay:10.37,2013-07-04 13:02:00,
2013-07-04 09:07:00,68.4,65.0,30.14,South,182,4.6,0.0,89,0.00,-RA,,0.01,WeatherDisplay:10.37,2013-07-04 13:07:00,
2013-07-04 09:12:00,68.6,65.2,30.14,South,182,6.0,6.0,89,0.00,-RA,,0.01,WeatherDisplay:10.37,2013-07-04 13:12:00,
2013-07-04 09:17:00,68.7,65.3,30.14,South,182,0.0,0.0,89,0.00,-RA,,0.01,WeatherDisplay:10.37,2013-07-04 13:17:00,
2013-07-04 09:22:00,68.8,65.4,30.15,South,185,5.8,5.8,89,0.00,-RA,,0.01,WeatherDisplay:10.37,2013-07-04 13:22:00,
2013-07-04 09:27:00,68.8,65.4,30.14,South,185,7.0,7.0,89,0.00,-RA,,0.01,WeatherDisplay:10.37,2013-07-04 13:27:00,
2013-07-04 09:32:00,68.7,65.3,30.15,South,185,4.0,4.0,89,0.00,-RA,,0.01,WeatherDisplay:10.37,2013-07-04 13:32:00,
2013-07-04 09:37:00,68.7,65.3,30.15,South,185,5.0,5.0,89,0.00,-RA,,0.01,WeatherDisplay:10.37,2013-07-04 13:37:00,
2013-07-04 09:42:00,68.7,65.3,30.15,South,187,5.8,5.8,89,0.00,-RA,,0.01,WeatherDisplay:10.37,2013-07-04 13:42:00,
2013-07-04 09:47:00,68.7,65.3,30.15,South,185,5.0,5.0,89,0.00,-RA,,0.01,WeatherDisplay:10.37,2013-07-04 13:47:00,
2013-07-04 09:52:00,68.7,65.3,30.15,South,183,6.0,6.0,89,0.00,-RA,,0.01,WeatherDisplay:10.37,2013-07-04 13:52:00,
2013-07-04 09:57:00,68.7,65.3,30.15,South,190,4.0,4.0,89,0.00,-RA,,0.01,WeatherDisplay:10.37,2013-07-04 13:57:00,
2013-07-04 10:02:00,68.8,65.4,30.15,South,182,7.0,7.0,89,0.00,OVC,,0.01,WeatherDisplay:10.37,2013-07-04 14:02:00,
2013-07-04 10:07:00,68.8,65.4,30.15,South,182,1.1,0.0,89,0.00,OVC,,0.01,WeatherDisplay:10.37,2013-07-04 14:07:00,
2013-07-04 10:12:00,68.9,65.5,30.15,South,187,10.0,10.0,89,0.01,RA,,0.02,WeatherDisplay:10.37,2013-07-04 14:12:00,
2013-07-04 10:17:00,68.8,65.4,30.15,South,188,1.1,0.0,89,0.01,RA,,0.03,WeatherDisplay:10.37,2013-07-04 14:17:00,
2013-07-04 10:23:00,68.8,65.4,30.15,South,188,0.0,0.0,89,0.02,RA,,0.03,WeatherDisplay:10.37,2013-07-04 14:23:00,
2013-07-04 10:28:00,68.9,65.8,30.15,South,188,3.0,3.0,90,0.04,RA,,0.05,WeatherDisplay:10.37,2013-07-04 14:28:00,
2013-07-04 10:33:00,68.9,65.8,30.14,South,188,4.0,4.0,90,0.06,RA,,0.07,WeatherDisplay:10.37,2013-07-04 14:33:00,
2013-07-04 10:38:00,68.9,65.8,30.14,South,187,2.3,2.3,90,0.06,RA,,0.07,WeatherDisplay:10.37,2013-07-04 14:38:00,
2013-07-04 10:43:00,69.0,65.9,30.14,South,187,3.0,3.0,90,0.07,RA,,0.08,WeatherDisplay:10.37,2013-07-04 14:43:00,
2013-07-04 10:48:00,69.1,66.0,30.14,South,187,1.1,1.1,90,0.08,RA,,0.09,WeatherDisplay:10.37,2013-07-04 14:48:00,
2013-07-04 10:53:00,69.2,66.1,30.14,South,188,2.0,2.0,90,0.09,RA,,0.10,WeatherDisplay:10.37,2013-07-04 14:53:00,
2013-07-04 10:58:00,69.2,66.1,30.14,South,188,1.0,0.0,90,0.09,RA,,0.11,WeatherDisplay:10.37,2013-07-04 14:58:00,
2013-07-04 11:03:00,69.3,66.2,30.14,South,188,1.1,1.1,90,0.10,RA,,0.11,WeatherDisplay:10.37,2013-07-04 15:03:00,
2013-07-04 11:08:00,69.4,66.3,30.14,South,187,1.1,1.1,90,0.10,RA,,0.12,WeatherDisplay:10.37,2013-07-04 15:08:00,
2013-07-04 11:13:00,69.5,66.4,30.14,South,188,1.1,0.0,90,0.10,RA,,0.12,WeatherDisplay:10.37,2013-07-04 15:13:00,
2013-07-04 11:18:00,69.6,66.5,30.14,South,187,1.0,1.0,90,0.11,RA,,0.13,WeatherDisplay:10.37,2013-07-04 15:18:00,
2013-07-04 11:23:00,69.7,66.6,30.14,South,187,1.1,0.0,90,0.11,RA,,0.14,WeatherDisplay:10.37,2013-07-04 15:23:00,
2013-07-04 11:28:00,69.7,66.6,30.14,South,188,1.1,0.0,90,0.12,RA,,0.17,WeatherDisplay:10.37,2013-07-04 15:28:00,
2013-07-04 11:33:00,69.7,66.6,30.14,South,188,1.1,1.1,90,0.11,RA,,0.18,WeatherDisplay:10.37,2013-07-04 15:33:00,
2013-07-04 11:38:00,69.7,66.6,30.14,South,188,1.0,1.0,90,0.11,RA,,0.18,WeatherDisplay:10.37,2013-07-04 15:38:00,
2013-07-04 11:43:00,69.9,66.8,30.14,South,188,1.1,0.0,90,0.10,OVC,,0.18,WeatherDisplay:10.37,2013-07-04 15:43:00,
2013-07-04 11:48:00,69.9,66.8,30.14,South,188,1.0,0.0,90,0.09,OVC,,0.18,WeatherDisplay:10.37,2013-07-04 15:48:00,
2013-07-04 11:53:00,69.9,66.8,30.14,South,188,2.3,2.3,90,0.09,RA,,0.19,WeatherDisplay:10.37,2013-07-04 15:53:00,
2013-07-04 11:58:00,69.9,66.8,30.14,South,188,1.0,0.0,90,0.09,RA,,0.19,WeatherDisplay:10.37,2013-07-04 15:58:00,
2013-07-04 12:03:00,70.1,67.0,30.14,South,187,2.3,2.3,90,0.08,-RA,,0.19,WeatherDisplay:10.37,2013-07-04 16:03:00,
2013-07-04 12:08:00,70.1,67.0,30.14,SSW,196,5.0,5.0,90,0.09,-RA,,0.20,WeatherDisplay:10.37,2013-07-04 16:08:00,
2013-07-04 12:13:00,70.1,67.0,30.14,SSW,192,6.0,6.0,90,0.08,-RA,,0.21,WeatherDisplay:10.37,2013-07-04 16:13:00,
2013-07-04 12:18:00,70.2,67.1,30.14,South,189,4.0,4.0,90,0.08,-RA,,0.21,WeatherDisplay:10.37,2013-07-04 16:18:00,
2013-07-04 12:23:00,70.3,67.2,30.14,South,188,1.1,1.1,90,0.08,-RA,,0.22,WeatherDisplay:10.37,2013-07-04 16:23:00,
2013-07-04 12:28:00,70.1,67.0,30.14,South,188,4.0,4.0,90,0.05,-RA,,0.22,WeatherDisplay:10.37,2013-07-04 16:28:00,
2013-07-04 12:33:00,69.9,66.8,30.14,South,185,5.0,5.0,90,0.05,-RA,,0.23,WeatherDisplay:10.37,2013-07-04 16:33:00,
2013-07-04 12:38:00,69.9,66.8,30.14,South,182,4.0,4.0,90,0.05,-RA,,0.23,WeatherDisplay:10.37,2013-07-04 16:38:00,
2013-07-04 12:43:00,69.9,66.8,30.14,South,182,1.1,0.0,90,0.06,-RA,,0.24,WeatherDisplay:10.37,2013-07-04 16:43:00,
2013-07-04 12:48:00,70.0,66.9,30.14,South,182,1.0,0.0,90,0.07,-RA,,0.25,WeatherDisplay:10.37,2013-07-04 16:48:00,
2013-07-04 12:53:00,70.1,67.0,30.14,South,180,8.0,8.0,90,0.07,-RA,,0.26,WeatherDisplay:10.37,2013-07-04 16:53:00,
2013-07-04 12:58:00,70.2,67.1,30.14,South,180,6.0,6.0,90,0.09,-RA,,0.29,WeatherDisplay:10.37,2013-07-04 16:58:00,
2013-07-04 13:03:00,70.3,67.2,30.14,South,180,0.0,0.0,90,0.10,RA,,0.29,WeatherDisplay:10.37,2013-07-04 17:03:00,
2013-07-04 13:08:00,70.3,67.2,30.13,South,180,3.5,3.5,90,0.10,RA,,0.30,WeatherDisplay:10.37,2013-07-04 17:08:00,
2013-07-04 13:13:00,70.0,66.9,30.13,South,179,6.0,6.0,90,0.11,RA,,0.31,WeatherDisplay:10.37,2013-07-04 17:13:00,
2013-07-04 13:18:00,69.9,66.8,30.13,South,179,2.3,2.3,90,0.11,RA,,0.32,WeatherDisplay:10.37,2013-07-04 17:18:00,
2013-07-04 13:23:00,69.9,66.8,30.14,South,182,4.6,4.6,90,0.10,RA,,0.32,WeatherDisplay:10.37,2013-07-04 17:23:00,
2013-07-04 13:28:00,69.8,66.7,30.14,South,185,8.0,8.0,90,0.11,RA,,0.33,WeatherDisplay:10.37,2013-07-04 17:28:00,
2013-07-04 13:33:00,69.8,66.7,30.14,South,185,4.6,4.6,90,0.11,RA,,0.35,WeatherDisplay:10.37,2013-07-04 17:33:00,
2013-07-04 13:38:00,69.8,66.7,30.14,South,187,4.0,4.0,90,0.13,RA,,0.36,WeatherDisplay:10.37,2013-07-04 17:38:00,
2013-07-04 13:43:00,69.9,66.8,30.14,South,188,1.0,1.0,90,0.13,RA,,0.37,WeatherDisplay:10.37,2013-07-04 17:43:00,
2013-07-04 13:48:00,69.9,66.8,30.14,South,183,6.0,6.0,90,0.13,RA,,0.38,WeatherDisplay:10.37,2013-07-04 17:48:00,
2013-07-04 13:53:00,69.7,66.6,30.14,South,183,11.5,11.5,90,0.13,RA,,0.39,WeatherDisplay:10.37,2013-07-04 17:53:00,
2013-07-04 13:58:00,69.4,66.3,30.14,SW,220,3.5,3.5,90,0.14,RA,,0.43,WeatherDisplay:10.37,2013-07-04 17:58:00,
2013-07-04 14:03:00,69.3,66.2,30.14,SSW,209,5.0,5.0,90,0.17,RA,,0.46,WeatherDisplay:10.37,2013-07-04 18:03:00,
2013-07-04 14:08:00,69.2,66.1,30.14,SSW,199,5.8,5.8,90,0.17,RA,,0.48,WeatherDisplay:10.37,2013-07-04 18:08:00,
2013-07-04 14:13:00,69.2,66.1,30.14,SSW,201,3.5,3.5,90,0.17,RA,,0.49,WeatherDisplay:10.37,2013-07-04 18:13:00,
2013-07-04 14:19:00,69.2,66.1,30.14,SSW,201,4.0,4.0,90,0.18,RA,,0.50,WeatherDisplay:10.37,2013-07-04 18:19:00,
2013-07-04 14:24:00,69.0,65.9,30.13,SW,216,2.3,2.3,90,0.18,RA,,0.51,WeatherDisplay:10.37,2013-07-04 18:24:00,
2013-07-04 14:29:00,69.0,65.9,30.13,SW,214,2.3,2.3,90,0.18,RA,,0.51,WeatherDisplay:10.37,2013-07-04 18:29:00,
2013-07-04 14:34:00,69.2,66.1,30.13,SW,214,1.1,1.1,90,0.17,RA,,0.52,WeatherDisplay:10.37,2013-07-04 18:34:00,
2013-07-04 14:39:00,69.2,66.1,30.13,SSW,212,1.1,0.0,90,0.16,RA,,0.52,WeatherDisplay:10.37,2013-07-04 18:39:00,
2013-07-04 14:44:00,69.3,66.2,30.13,SSW,212,1.1,0.0,90,0.15,RA,,0.52,WeatherDisplay:10.37,2013-07-04 18:44:00,
2013-07-04 14:49:00,69.3,66.2,30.13,SSW,212,3.5,3.5,90,0.14,OVC,,0.52,WeatherDisplay:10.37,2013-07-04 18:49:00,
2013-07-04 14:54:00,69.1,66.0,30.13,SSW,212,3.5,3.5,90,0.12,OVC,,0.52,WeatherDisplay:10.37,2013-07-04 18:54:00,
2013-07-04 14:59:00,69.0,65.9,30.13,SSW,212,2.3,2.3,90,0.10,RA,,0.53,WeatherDisplay:10.37,2013-07-04 18:59:00,
2013-07-04 15:04:00,69.1,66.0,30.12,SSW,212,0.0,0.0,90,0.08,-RA,,0.54,WeatherDisplay:10.37,2013-07-04 19:04:00,
2013-07-04 15:09:00,69.3,66.2,30.12,SSW,212,0.0,0.0,90,0.07,-RA,,0.55,WeatherDisplay:10.37,2013-07-04 19:09:00,
2013-07-04 15:14:00,69.3,66.2,30.12,SSW,212,1.1,1.1,90,0.07,-RA,,0.56,WeatherDisplay:10.37,2013-07-04 19:14:00,
2013-07-04 15:19:00,69.3,66.2,30.12,SSW,212,0.0,0.0,90,0.06,-RA,,0.56,WeatherDisplay:10.37,2013-07-04 19:19:00,
2013-07-04 15:24:00,69.4,66.3,30.12,SSW,212,1.0,0.0,90,0.07,-RA,,0.58,WeatherDisplay:10.37,2013-07-04 19:24:00,
2013-07-04 15:29:00,69.3,66.2,30.12,SSW,212,1.1,1.1,90,0.08,-RA,,0.59,WeatherDisplay:10.37,2013-07-04 19:29:00,
2013-07-04 15:34:00,69.2,66.1,30.12,SSW,212,0.0,0.0,90,0.08,-RA,,0.60,WeatherDisplay:10.37,2013-07-04 19:34:00,
2013-07-04 15:39:00,69.1,66.0,30.13,SSW,212,1.1,1.1,90,0.09,-RA,,0.61,WeatherDisplay:10.37,2013-07-04 19:39:00,
2013-07-04 15:44:00,69.1,66.0,30.13,SSW,212,3.5,0.0,90,0.13,-RA,,0.66,WeatherDisplay:10.37,2013-07-04 19:44:00,
2013-07-04 15:49:00,69.2,66.1,30.13,SSW,212,0.0,0.0,90,0.18,-RA,,0.71,WeatherDisplay:10.37,2013-07-04 19:49:00,
2013-07-04 15:54:00,69.1,66.0,30.13,SSW,212,1.1,1.1,90,0.19,-RA,,0.71,WeatherDisplay:10.37,2013-07-04 19:54:00,
2013-07-04 15:59:00,69.1,66.0,30.12,SSW,212,0.0,0.0,90,0.19,-RA,,0.72,WeatherDisplay:10.37,2013-07-04 19:59:00,
2013-07-04 16:04:00,69.1,66.0,30.12,SSW,212,1.1,1.1,90,0.18,RA,,0.72,WeatherDisplay:10.37,2013-07-04 20:04:00,
2013-07-04 16:09:00,69.2,66.1,30.12,SSW,212,0.0,0.0,90,0.17,OVC,,0.72,WeatherDisplay:10.37,2013-07-04 20:09:00,
2013-07-04 16:14:00,69.2,66.1,30.12,SSW,212,0.0,0.0,90,0.17,RA,,0.73,WeatherDisplay:10.37,2013-07-04 20:14:00,
2013-07-04 16:19:00,69.3,66.2,30.12,SSW,212,0.0,0.0,90,0.17,RA,,0.74,WeatherDisplay:10.37,2013-07-04 20:19:00,
2013-07-04 16:24:00,69.3,66.2,30.11,SSW,212,0.0,0.0,90,0.17,RA,,0.74,WeatherDisplay:10.37,2013-07-04 20:24:00,
2013-07-04 16:29:00,69.5,66.4,30.11,SSW,212,1.1,1.1,90,0.15,RA,,0.74,WeatherDisplay:10.37,2013-07-04 20:29:00,
2013-07-04 16:34:00,69.4,66.3,30.11,SSW,212,3.5,3.5,90,0.14,OVC,,0.74,WeatherDisplay:10.37,2013-07-04 20:34:00,
2013-07-04 16:39:00,69.5,66.4,30.10,SSW,212,1.0,0.0,90,0.15,RA,,0.76,WeatherDisplay:10.37,2013-07-04 20:39:00,
2013-07-04 16:45:00,69.7,66.6,30.10,SSW,208,4.6,4.6,90,0.09,RA,,0.77,WeatherDisplay:10.37,2013-07-04 20:45:00,
2013-07-04 16:50:00,69.7,66.6,30.10,SSW,207,0.0,0.0,90,0.06,RA,,0.77,WeatherDisplay:10.37,2013-07-04 20:50:00,
2013-07-04 16:55:00,69.6,66.5,30.10,SSW,207,1.1,1.1,90,0.06,RA,,0.77,WeatherDisplay:10.37,2013-07-04 20:55:00,
2013-07-04 17:00:00,69.4,66.3,30.10,SSW,207,0.0,0.0,90,0.05,OVC,,0.77,WeatherDisplay:10.37,2013-07-04 21:00:00,
2013-07-04 17:05:00,69.3,66.2,30.10,SSW,208,0.0,0.0,90,0.05,-RA,,0.77,WeatherDisplay:10.37,2013-07-04 21:05:00,
2013-07-04 17:06:00,69.3,66.2,30.10,SSW,208,0.0,0.0,90,0.05,-RA,,0.78,WeatherDisplay:10.37,2013-07-04 21:06:00,
2013-07-04 17:11:00,69.4,66.3,30.10,SSW,208,0.0,0.0,90,0.05,-RA,,0.79,WeatherDisplay:10.37,2013-07-04 21:11:00,
2013-07-04 17:16:00,69.4,66.3,30.10,SSW,207,0.0,0.0,90,0.08,-RA,,0.81,WeatherDisplay:10.37,2013-07-04 21:16:00,
2013-07-04 17:21:00,69.4,66.3,30.11,SSW,208,1.1,1.1,90,0.12,-RA,,0.87,WeatherDisplay:10.37,2013-07-04 21:21:00,
2013-07-04 17:26:00,69.3,66.2,30.11,SSW,207,0.0,0.0,90,0.16,-RA,,0.90,WeatherDisplay:10.37,2013-07-04 21:26:00,
2013-07-04 17:31:00,69.2,66.1,30.11,SSW,208,2.3,2.3,90,0.18,-RA,,0.92,WeatherDisplay:10.37,2013-07-04 21:31:00,
2013-07-04 17:36:00,68.8,65.7,30.11,SSW,208,3.0,3.0,90,0.20,-RA,,0.95,WeatherDisplay:10.37,2013-07-04 21:36:00,
2013-07-04 17:41:00,68.3,65.3,30.12,SSW,203,5.0,5.0,90,0.22,-RA,,0.98,WeatherDisplay:10.37,2013-07-04 21:41:00,
2013-07-04 17:46:00,67.9,64.9,30.11,SSW,203,0.0,0.0,90,0.27,-RA,,1.04,WeatherDisplay:10.37,2013-07-04 21:46:00,
2013-07-04 17:51:00,67.6,64.6,30.11,SSW,203,0.0,0.0,90,0.30,-RA,,1.07,WeatherDisplay:10.37,2013-07-04 21:51:00,
2013-07-04 17:56:00,67.3,64.3,30.10,SSW,203,2.0,2.0,90,0.31,-RA,,1.08,WeatherDisplay:10.37,2013-07-04 21:56:00,
2013-07-04 18:01:00,67.0,64.0,30.11,SSW,203,1.1,1.1,90,0.31,-RA,,1.08,WeatherDisplay:10.37,2013-07-04 22:01:00,
2013-07-04 18:06:00,66.9,63.9,30.12,SSW,203,0.0,0.0,90,0.34,-RA,,1.12,WeatherDisplay:10.37,2013-07-04 22:06:00,
2013-07-04 18:11:00,66.8,63.8,30.10,SSW,203,0.0,0.0,90,0.38,-RA,,1.17,WeatherDisplay:10.37,2013-07-04 22:11:00,
2013-07-04 18:16:00,66.7,63.7,30.10,SSW,203,0.0,0.0,90,0.37,-RA,,1.18,WeatherDisplay:10.37,2013-07-04 22:16:00,
2013-07-04 18:21:00,66.8,63.8,30.10,SSW,203,0.0,0.0,90,0.32,-RA,,1.18,WeatherDisplay:10.37,2013-07-04 22:21:00,
2013-07-04 18:26:00,66.7,63.7,30.09,SSW,203,1.1,0.0,90,0.28,-RA,,1.18,WeatherDisplay:10.37,2013-07-04 22:26:00,
2013-07-04 18:31:00,66.8,63.8,30.09,SSW,203,1.1,0.0,90,0.27,-RA,,1.19,WeatherDisplay:10.37,2013-07-04 22:31:00,
2013-07-04 18:36:00,66.7,63.7,30.08,SSW,203,0.0,0.0,90,0.24,-RA,,1.19,WeatherDisplay:10.37,2013-07-04 22:36:00,
2013-07-04 18:42:00,66.7,63.7,30.08,SSW,203,2.3,2.3,90,0.21,-RA,,1.19,WeatherDisplay:10.37,2013-07-04 22:42:00,
2013-07-04 18:47:00,66.6,63.6,30.08,SSW,203,2.3,2.3,90,0.13,-RA,,1.19,WeatherDisplay:10.37,2013-07-04 22:47:00,
2013-07-04 18:52:00,66.7,63.7,30.08,SSW,203,0.0,0.0,90,0.12,-RA,,1.19,WeatherDisplay:10.37,2013-07-04 22:52:00,
2013-07-04 18:57:00,66.8,63.8,30.08,SSW,203,0.0,0.0,90,0.11,-RA,,1.19,WeatherDisplay:10.37,2013-07-04 22:57:00,
2013-07-04 19:02:00,66.8,63.8,30.09,SSW,203,1.1,0.0,90,0.11,-RA,,1.19,WeatherDisplay:10.37,2013-07-04 23:02:00,
2013-07-04 19:07:00,66.8,63.8,30.09,SSW,203,0.0,0.0,90,0.05,-RA,,1.19,WeatherDisplay:10.37,2013-07-04 23:07:00,
2013-07-04 19:12:00,67.0,64.0,30.09,SSW,203,0.0,0.0,90,0.02,-RA,,1.19,WeatherDisplay:10.37,2013-07-04 23:12:00,
2013-07-04 19:17:00,67.1,64.1,30.09,SSW,203,0.0,0.0,90,0.01,-RA,,1.19,WeatherDisplay:10.37,2013-07-04 23:17:00,
2013-07-04 19:22:00,67.0,64.0,30.09,SSW,203,0.0,0.0,90,0.01,-RA,,1.19,WeatherDisplay:10.37,2013-07-04 23:22:00,
2013-07-04 19:27:00,67.0,64.0,30.09,SSW,203,0.0,0.0,90,0.01,-RA,,1.19,WeatherDisplay:10.37,2013-07-04 23:27:00,
2013-07-04 19:32:00,67.1,64.1,30.09,SSW,203,0.0,0.0,90,0.01,-RA,,1.20,WeatherDisplay:10.37,2013-07-04 23:32:00,
2013-07-04 19:37:00,67.1,64.1,30.08,SSW,203,0.0,0.0,90,0.01,-RA,,1.20,WeatherDisplay:10.37,2013-07-04 23:37:00,
2013-07-04 19:42:00,67.0,64.0,30.09,SSW,203,0.0,0.0,90,0.02,-RA,,1.21,WeatherDisplay:10.37,2013-07-04 23:42:00,
2013-07-04 19:47:00,67.1,64.1,30.09,SSW,203,0.0,0.0,90,0.02,-RA,,1.21,WeatherDisplay:10.37,2013-07-04 23:47:00,
2013-07-04 19:52:00,67.0,64.0,30.10,SSW,203,1.1,0.0,90,0.04,-RA,,1.23,WeatherDisplay:10.37,2013-07-04 23:52:00,
2013-07-04 19:57:00,67.1,64.1,30.10,SSW,203,0.0,0.0,90,0.06,-RA,,1.25,WeatherDisplay:10.37,2013-07-04 23:57:00,
2013-07-04 20:02:00,66.9,63.9,30.10,SSW,203,3.5,3.5,90,0.08,-RA,,1.27,WeatherDisplay:10.37,2013-07-05 00:02:00,
2013-07-04 20:07:00,67.0,64.0,30.11,SSW,203,2.3,2.3,90,0.10,-RA,,1.29,WeatherDisplay:10.37,2013-07-05 00:07:00,
2013-07-04 20:12:00,66.9,63.9,30.11,SSW,203,2.3,2.3,90,0.11,-RA,,1.31,WeatherDisplay:10.37,2013-07-05 00:12:00,
2013-07-04 20:17:00,66.7,63.7,30.11,SSW,203,3.5,3.5,90,0.12,-RA,,1.31,WeatherDisplay:10.37,2013-07-05 00:17:00,
2013-07-04 20:22:00,66.6,63.6,30.11,SSW,203,3.5,0.0,90,0.13,-RA,,1.32,WeatherDisplay:10.37,2013-07-05 00:22:00,
2013-07-04 20:27:00,66.5,63.5,30.10,SSW,203,0.0,0.0,90,0.14,-RA,,1.33,WeatherDisplay:10.37,2013-07-05 00:27:00,
2013-07-04 20:32:00,66.4,63.4,30.12,SSW,203,3.5,3.5,90,0.14,-RA,,1.35,WeatherDisplay:10.37,2013-07-05 00:32:00,
2013-07-04 20:37:00,66.4,63.4,30.11,SSW,203,3.5,0.0,90,0.17,-RA,,1.37,WeatherDisplay:10.37,2013-07-05 00:37:00,
2013-07-04 20:42:00,66.1,63.1,30.11,SSW,203,0.0,0.0,90,0.19,-RA,,1.40,WeatherDisplay:10.37,2013-07-05 00:42:00,
2013-07-04 20:47:00,66.0,63.0,30.11,SSW,203,0.0,0.0,90,0.22,-RA,,1.43,WeatherDisplay:10.37,2013-07-05 00:47:00,
2013-07-04 20:52:00,65.9,62.9,30.11,SSW,203,0.0,0.0,90,0.21,-RA,,1.44,WeatherDisplay:10.37,2013-07-05 00:52:00,
2013-07-04 20:57:00,65.8,62.8,30.11,SSW,203,0.0,0.0,90,0.20,-RA,,1.45,WeatherDisplay:10.37,2013-07-05 00:57:00,
2013-07-04 21:02:00,65.6,62.6,30.10,SSW,203,0.0,0.0,90,0.20,RA,,1.47,WeatherDisplay:10.37,2013-07-05 01:02:00,
2013-07-04 21:07:00,65.4,62.4,30.09,SSW,203,1.1,0.0,90,0.20,RA,,1.49,WeatherDisplay:10.37,2013-07-05 01:07:00,
2013-07-04 21:12:00,65.3,62.3,30.09,SSW,203,0.0,0.0,90,0.20,RA,,1.50,WeatherDisplay:10.37,2013-07-05 01:12:00,
2013-07-04 21:17:00,65.2,62.2,30.10,SSW,203,2.3,2.3,90,0.20,RA,,1.51,WeatherDisplay:10.37,2013-07-05 01:17:00,
2013-07-04 21:22:00,65.3,62.3,30.10,SSW,203,0.0,0.0,90,0.21,RA,,1.53,WeatherDisplay:10.37,2013-07-05 01:22:00,
2013-07-04 21:27:00,65.2,62.2,30.10,SSW,203,2.3,2.3,90,0.21,RA,,1.54,WeatherDisplay:10.37,2013-07-05 01:27:00,
2013-07-04 21:32:00,65.1,62.1,30.10,SSW,203,1.1,1.1,90,0.21,RA,,1.55,WeatherDisplay:10.37,2013-07-05 01:32:00,
2013-07-04 21:37:00,65.1,62.1,30.10,SSW,203,1.1,1.1,90,0.20,RA,,1.57,WeatherDisplay:10.37,2013-07-05 01:37:00,
2013-07-04 21:42:00,65.0,62.0,30.10,SSW,203,0.0,0.0,90,0.17,RA,,1.57,WeatherDisplay:10.37,2013-07-05 01:42:00,
2013-07-04 21:43:00,65.0,62.0,30.10,SSW,203,0.0,0.0,90,0.16,RA,,1.57,WeatherDisplay:10.37,2013-07-05 01:43:00,
2013-07-04 21:48:00,65.0,62.0,30.10,SSW,203,0.0,0.0,90,0.15,RA,,1.58,WeatherDisplay:10.37,2013-07-05 01:48:00,
2013-07-04 21:53:00,65.0,62.0,30.10,SSW,203,0.0,0.0,90,0.14,RA,,1.58,WeatherDisplay:10.37,2013-07-05 01:53:00,
2013-07-04 21:58:00,65.0,62.0,30.09,SSW,203,0.0,0.0,90,0.13,RA,,1.59,WeatherDisplay:10.37,2013-07-05 01:58:00,
2013-07-04 22:03:00,65.1,62.1,30.10,SSW,203,0.0,0.0,90,0.11,-RA,,1.59,WeatherDisplay:10.37,2013-07-05 02:03:00,
2013-07-04 22:08:00,65.1,62.1,30.09,SSW,203,1.0,0.0,90,0.10,-RA,,1.59,WeatherDisplay:10.37,2013-07-05 02:08:00,
2013-07-04 22:13:00,65.0,62.0,30.10,SSW,203,1.1,1.1,90,0.09,-RA,,1.59,WeatherDisplay:10.37,2013-07-05 02:13:00,
2013-07-04 22:18:00,65.0,62.0,30.10,SSW,203,2.3,0.0,90,0.08,-RA,,1.59,WeatherDisplay:10.37,2013-07-05 02:18:00,
2013-07-04 22:23:00,65.0,62.0,30.10,SSW,203,3.5,0.0,90,0.06,-RA,,1.59,WeatherDisplay:10.37,2013-07-05 02:23:00,
2013-07-04 22:28:00,65.0,62.0,30.10,SSW,203,0.0,0.0,90,0.05,-RA,,1.59,WeatherDisplay:10.37,2013-07-05 02:28:00,
2013-07-04 22:33:00,65.0,62.0,30.10,SSW,203,1.1,1.1,90,0.04,-RA,,1.60,WeatherDisplay:10.37,2013-07-05 02:33:00,
2013-07-04 22:38:00,65.1,62.1,30.10,SSW,202,0.0,0.0,90,0.03,-RA,,1.60,WeatherDisplay:10.37,2013-07-05 02:38:00,
2013-07-04 22:43:00,65.1,62.1,30.10,SSW,202,2.3,0.0,90,0.03,-RA,,1.60,WeatherDisplay:10.37,2013-07-05 02:43:00,
2013-07-04 22:48:00,65.1,62.1,30.10,SSW,202,1.1,0.0,90,0.02,-RA,,1.60,WeatherDisplay:10.37,2013-07-05 02:48:00,
2013-07-04 22:53:00,65.2,62.2,30.09,SSW,203,3.5,3.5,90,0.02,-RA,,1.60,WeatherDisplay:10.37,2013-07-05 02:53:00,
2013-07-04 22:58:00,65.2,62.2,30.10,SSW,203,2.3,2.3,90,0.01,-RA,,1.60,WeatherDisplay:10.37,2013-07-05 02:58:00,
2013-07-04 23:03:00,65.3,62.3,30.10,SSW,203,0.0,0.0,90,0.01,-RA,,1.60,WeatherDisplay:10.37,2013-07-05 03:03:00,
2013-07-04 23:08:00,65.3,62.3,30.09,SSW,203,2.0,2.0,90,0.01,-RA,,1.60,WeatherDisplay:10.37,2013-07-05 03:08:00,
2013-07-04 23:13:00,65.3,62.3,30.09,SSW,202,2.3,2.3,90,0.02,-RA,,1.61,WeatherDisplay:10.37,2013-07-05 03:13:00,
2013-07-04 23:18:00,65.3,62.3,30.10,SSW,197,3.5,3.5,90,0.02,-RA,,1.61,WeatherDisplay:10.37,2013-07-05 03:18:00,
2013-07-04 23:23:00,65.3,62.3,30.10,SSW,195,3.5,3.5,90,0.02,-RA,,1.61,WeatherDisplay:10.37,2013-07-05 03:23:00,
2013-07-04 23:28:00,65.5,62.5,30.10,SSW,195,2.3,2.3,90,0.02,-RA,,1.61,WeatherDisplay:10.37,2013-07-05 03:28:00,
2013-07-04 23:33:00,65.5,62.5,30.10,SSW,195,2.3,2.3,90,0.01,-RA,,1.61,WeatherDisplay:10.37,2013-07-05 03:33:00,
2013-07-04 23:38:00,65.4,62.4,30.10,SSW,195,3.0,3.0,90,0.01,-RA,,1.61,WeatherDisplay:10.37,2013-07-05 03:38:00,
2013-07-04 23:43:00,65.4,62.4,30.10,SSW,195,5.0,5.0,90,0.01,-RA,,1.61,WeatherDisplay:10.37,2013-07-05 03:43:00,
2013-07-04 23:48:00,65.5,62.5,30.10,SSW,193,4.0,4.0,90,0.01,-RA,,1.61,WeatherDisplay:10.37,2013-07-05 03:48:00,
2013-07-04 23:53:00,65.6,62.6,30.11,SSW,193,4.0,4.0,90,0.02,-RA,,1.62,WeatherDisplay:10.37,2013-07-05 03:53:00,
2013-07-04 23:58:00,65.6,62.6,30.11,SSW,193,4.0,4.0,90,0.02,-RA,,1.62,WeatherDisplay:10.37,2013-07-05 03:58:00,